Wind_Speed
6 7 10 12 14 15 14 13 12 10 9 10 9 10 9 5 5 7 6 5 5 5 5 4 3 3 4 5 5 6 7 8 9 10 10 10 10 10 10 9 9 9 9 9 10 10 11 12 12 13 14 14 14 14 15 15 15 15 14 14 15 17 19
6 7 10 12 13 13 12 12 11 10 11 12 11 10 8 6 7 6 5 5 6 6 5 5 6 6 7 7 7 7 8 10 10 11 11 11 11 12 12 12 11 10 9 9 9 10 11 12 13 13 14 14 14 14 15 15 16 16 15 15 16 17 19
8 8 9 9 9 10 10 9 11 11 12 12 11 10 8 7 7 5 4 5 6 6 6 7 8 8 9 8 7 7 10 12 11 11 11 11 11 12 12 13 13 12 11 10 10 10 11 12 13 13 14 15 15 15 16 16 17 17 17 17 17 17 19
10 10 8 8 9 10 9 9 11 13 13 12 11 10 8 7 7 7 6 6 6 6 7 8 8 9 10 9 8 9 12 14 13 11 11 11 11 12 12 13 14 14 12 11 11 11 12 12 13 13 14 15 15 15 16 17 17 18 18 18 18 18 18
11 10 9 10 11 10 9 9 11 13 13 11 9 9 8 7 7 8 7 6 6 6 7 8 9 10 10 10 9 10 13 15 14 13 13 12 12 12 12 13 14 14 14 13 13 13 13 14 13 13 14 15 16 16 16 17 18 19 19 19 19 19 19
11 9 10 12 11 11 11 9 10 12 12 10 8 8 8 8 8 8 7 7 7 8 9 9 10 11 11 11 11 13 16 16 15 15 15 14 14 13 13 13 14 14 15 16 15 14 14 15 15 14 15 16 17 17 18 18 19 19 19 19 20 20 19
11 10 12 11 9 10 11 10 9 10 10 8 7 8 8 7 8 8 7 7 9 10 10 10 11 13 13 13 14 16 18 17 16 16 17 17 16 15 14 15 15 16 17 18 17 16 16 16 16 16 16 16 18 18 19 19 19 20 20 20 20 21 20
10 10 11 9 7 8 10 10 10 9 8 7 8 8 7 7 7 8 8 9 10 11 11 11 13 14 14 14 15 17 18 16 15 16 18 18 18 16 16 18 18 18 19 19 19 19 19 19 18 18 18 17 18 19 20 20 20 20 20 20 21 21 21
10 9 9 6 4 5 7 8 8 8 7 6 7 7 7 7 8 9 10 10 10 11 11 11 13 14 14 14 16 17 17 16 15 16 18 19 19 18 19 20 20 19 20 19 19 19 20 20 20 20 20 19 19 20 20 20 20 21 21 21 21 22 22
11 10 8 4 3 5 6 6 5 6 6 6 7 7 8 9 9 9 10 10 11 11 12 13 14 15 16 17 18 17 16 16 17 18 20 21 20 20 21 22 21 20 20 19 19 20 20 20 19 19 20 20 20 20 20 20 21 21 21 22 22 22 22
14 11 6 4 4 5 6 6 7 7 7 7 8 9 10 11 10 9 10 10 11 11 12 14 15 17 19 19 19 17 16 16 17 19 21 21 19 20 22 22 21 21 20 20 20 21 20 20 20 19 19 21 21 20 20 21 21 21 21 22 23 23 23
11 7 4 2 2 2 4 6 6 6 7 8 9 9 10 10 9 9 10 10 10 11 13 15 17 19 20 20 20 18 17 16 16 18 21 20 18 20 23 23 23 23 22 20 19 20 20 20 21 21 20 21 22 22 21 21 21 21 22 23 23 24 24
10 6 5 2 2 3 4 5 4 4 5 6 7 7 7 7 7 8 9 10 10 13 16 18 20 21 20 19 20 19 17 16 16 18 20 19 19 20 21 22 24 24 21 19 19 20 21 21 21 21 21 21 22 23 23 22 22 22 23 24 25 25 24
9 5 6 5 4 4 4 3 4 5 5 6 6 5 5 5 6 8 9 11 13 15 18 20 21 20 19 18 20 21 20 18 18 19 19 20 21 21 20 22 24 22 20 20 21 21 21 21 20 21 21 22 23 23 23 23 23 24 24 25 26 26 25
8 4 5 8 7 5 5 3 4 5 5 5 4 3 4 5 6 8 10 13 14 16 18 19 18 17 17 18 19 21 21 20 19 18 18 20 22 21 20 21 22 22 21 22 22 22 21 20 20 22 23 24 24 24 24 24 25 25 25 26 26 26 26
8 7 7 11 10 6 5 4 5 5 4 4 3 3 5 5 6 8 11 13 13 13 15 15 15 15 16 17 17 18 19 19 18 17 18 19 18 17 17 18 19 20 21 22 22 22 22 21 21 22 24 25 25 24 24 25 26 26 26 26 27 27 28
8 9 9 11 11 8 6 5 5 5 4 4 4 4 5 5 6 8 10 12 12 12 12 12 13 13 14 14 15 15 16 17 17 16 16 17 15 14 15 15 17 18 19 20 21 22 23 23 23 23 24 25 26 27 26 26 25 25 26 27 28 28 29
9 10 11 10 12 10 6 6 6 6 6 5 4 5 5 6 6 8 10 11 13 14 13 12 13 14 14 14 14 14 15 16 16 15 14 15 14 13 12 12 14 16 17 18 19 21 22 22 22 22 22 23 25 26 26 25 24 25 26 27 28 28 28
9 10 11 10 13 13 8 7 7 6 6 5 5 5 6 6 7 8 11 12 14 15 14 14 14 14 15 15 14 14 14 14 15 14 13 14 14 13 11 10 10 11 11 13 14 15 17 17 18 18 17 18 18 20 21 21 23 24 24 24 23 24 25
11 12 12 10 13 14 9 8 7 6 5 5 5 5 6 7 8 9 11 12 14 15 15 14 14 14 14 14 14 14 14 14 13 13 13 13 12 12 10 8 7 7 7 9 10 11 12 14 15 15 15 15 15 15 15 15 17 19 19 18 18 18 19
12 12 12 10 12 15 11 7 7 5 4 4 5 6 6 7 8 9 10 11 12 14 14 13 13 13 13 13 13 13 13 13 13 12 12 11 10 10 10 9 8 8 8 9 10 10 11 12 13 13 13 13 12 13 13 11 11 13 14 14 14 15 16
12 13 12 10 10 14 13 8 5 3 3 3 4 5 6 6 7 8 9 9 10 11 11 12 12 12 12 12 12 12 12 13 12 11 10 9 8 9 10 10 10 9 10 11 11 12 12 11 12 12 12 11 11 12 12 10 10 12 14 14 14 15 16
12 12 10 8 6 9 13 10 4 2 2 3 4 4 5 6 7 8 9 9 9 10 10 11 11 11 11 11 12 11 11 11 11 10 9 9 9 9 10 10 10 10 11 11 12 12 12 12 13 13 12 11 11 12 12 10 10 12 14 14 15 15 15
8 10 9 8 6 7 10 11 6 3 3 3 4 4 5 6 7 8 9 9 10 10 11 12 11 11 11 11 11 11 10 10 10 10 9 9 9 9 9 9 10 9 10 11 11 11 12 12 12 13 12 12 11 12 11 10 10 11 12 13 13 14 15
6 8 8 9 8 6 8 11 7 3 2 2 4 4 5 6 7 8 8 10 11 12 12 12 11 11 11 10 10 10 10 10 9 9 10 10 10 10 10 10 10 10 10 10 11 12 12 12 12 12 12 12 12 12 11 11 12 12 12 13 14 15 17
6 7 7 8 8 6 6 10 7 3 1 1 3 4 6 7 8 8 9 10 11 12 13 12 11 9 9 9 10 10 10 10 10 10 11 12 12 12 12 11 11 10 10 11 11 12 14 15 14 14 13 12 12 12 13 14 14 14 14 15 16 18 20
5 7 7 8 8 7 7 9 7 4 2 2 3 4 6 7 8 8 9 10 11 12 12 11 9 8 8 8 9 9 10 11 11 12 12 13 13 13 13 12 12 12 12 13 13 14 15 16 17 18 17 16 15 15 16 17 17 17 17 18 19 20 21
3 5 7 8 8 8 8 9 8 5 3 2 3 4 6 6 7 8 8 8 9 10 10 9 8 7 7 7 7 8 9 10 10 11 12 12 12 13 13 13 13 13 14 14 14 15 16 17 18 19 20 20 20 19 19 20 20 20 21 21 22 23 23
3 4 6 7 7 7 9 10 8 6 4 4 4 5 6 7 7 8 8 8 8 9 9 9 8 7 7 7 7 7 8 9 9 10 10 11 11 12 12 12 12 13 13 13 14 15 15 16 17 18 19 20 21 21 21 23 23 22 22 23 24 24 25
4 4 4 6 6 7 8 8 7 5 4 4 4 5 6 7 8 9 9 9 9 10 10 10 9 8 8 8 8 9 9 10 10 11 11 11 11 11 12 12 12 12 13 14 14 15 16 16 17 17 18 19 19 19 20 21 22 22 22 23 23 23 24
7 6 6 6 6 7 7 7 6 4 3 3 3 4 5 7 8 9 9 9 9 10 10 10 10 10 10 11 11 12 12 12 12 12 12 12 12 12 12 12 11 12 12 13 14 15 16 17 18 18 18 19 19 19 19 19 20 20 20 21 21 22 23
9 8 8 7 8 9 8 7 5 3 2 0 2 4 5 6 7 8 8 9 9 9 9 10 10 11 12 12 13 14 15 15 15 14 14 13 13 13 13 13 12 12 13 13 14 16 17 18 19 19 20 19 20 20 19 19 19 21 21 21 22 22 23
8 8 10 9 8 9 8 7 5 3 2 2 3 4 5 6 7 8 8 9 9 10 11 12 13 13 14 15 15 15 15 15 16 16 15 15 15 15 15 15 15 14 15 15 15 16 18 18 19 20 20 20 20 20 20 20 20 21 22 22 23 23 24
11 11 12 12 10 9 9 8 6 5 5 5 5 6 6 7 8 9 10 11 12 12 13 14 15 16 17 18 18 18 17 17 17 17 16 15 15 15 16 17 17 17 18 18 18 18 19 19 20 20 20 20 21 22 21 21 22 22 22 23 23 23 24
17 17 16 15 14 13 11 10 9 9 9 8 8 9 8 8 9 11 12 12 12 13 14 15 16 17 18 19 20 21 21 21 21 20 18 17 17 17 17 18 19 19 20 21 21 22 22 21 22 22 22 22 23 24 23 23 24 24 24 25 25 25 25
24 23 20 18 17 16 16 15 14 12 11 11 11 10 10 10 11 12 12 12 12 13 15 16 17 19 20 21 22 23 23 23 24 24 23 21 21 21 21 20 20 20 21 22 23 24 24 24 25 25 25 25 25 26 25 25 25 26 26 27 27 27 27
28 25 22 20 20 21 20 18 16 14 13 13 13 11 10 10 11 12 12 13 14 15 16 18 20 21 22 23 24 25 26 25 25 26 26 25 24 24 24 24 23 22 23 24 25 26 27 27 27 27 27 27 27 28 28 27 27 27 27 28 29 29 29
29 25 21 19 20 22 22 19 16 15 14 14 14 12 12 12 12 13 14 15 16 17 18 20 22 23 25 26 27 28 29 30 30 29 28 27 26 25 25 25 24 24 24 26 27 28 29 29 29 29 29 29 29 30 29 29 29 29 29 29 30 30 30
Wind_Direction
254 244 223 218 218 219 223 225 226 229 225 223 235 239 226 198 205 222 224 220 224 238 249 257 265 266 263 256 252 260 265 265 266 269 271 274 277 281 286 288 283 276 272 269 266 265 267 267 266 264 262 260 259 259 260 260 261 260 258 257 252 246 243
258 254 234 224 217 213 219 228 228 232 235 227 228 238 232 204 209 229 237 230 235 242 242 242 243 244 250 255 259 267 270 267 266 269 274 275 275 275 278 281 282 279 276 271 267 264 263 264 264 266 265 262 257 256 257 257 258 258 256 254 252 247 244
260 257 249 237 227 221 221 229 232 236 241 233 224 231 232 206 198 223 242 229 230 237 239 246 249 247 251 256 260 268 272 272 272 274 278 280 280 278 278 277 276 278 277 272 267 263 261 261 263 265 265 263 259 255 254 254 255 257 255 254 253 250 246
258 257 257 249 239 232 224 224 229 231 236 239 233 232 236 219 191 194 216 222 226 233 238 250 258 259 263 265 262 264 268 270 272 273 275 277 279 280 281 279 275 272 271 270 267 262 260 259 259 260 261 261 259 256 254 253 254 255 256 256 254 253 250
250 253 253 247 242 240 235 230 234 237 237 240 240 236 240 240 215 203 209 218 228 238 243 252 259 263 266 269 269 267 266 266 267 269 270 271 273 275 276 277 273 267 265 265 264 260 258 259 258 258 258 257 256 254 253 252 252 253 256 257 256 255 253
234 244 248 246 244 245 247 243 244 248 248 243 239 238 239 242 238 230 224 221 230 240 248 254 259 261 263 262 262 262 260 260 263 266 268 268 269 269 268 269 267 264 260 259 260 259 257 258 258 258 259 258 255 253 252 250 251 252 253 255 256 257 255
224 219 226 236 246 253 258 258 254 253 258 257 245 239 236 238 246 253 250 239 238 243 249 253 255 256 256 254 254 255 257 259 263 267 269 269 268 270 269 267 265 261 256 255 257 259 259 258 259 259 260 261 258 255 254 253 253 255 255 255 255 255 255
238 226 219 215 222 244 256 262 264 263 261 257 247 240 237 238 246 255 257 251 248 250 252 252 254 256 256 255 255 255 257 260 264 266 268 269 268 268 266 263 261 259 257 256 256 258 260 261 261 258 256 257 257 255 255 256 256 256 257 257 256 255 255
238 240 238 223 199 228 248 256 268 272 262 246 240 242 244 243 241 245 251 254 256 261 262 260 263 266 265 261 257 256 258 261 262 263 264 266 266 263 259 257 257 258 260 260 258 257 258 259 260 258 255 253 254 255 255 256 257 257 258 259 259 258 256
239 234 228 214 181 195 218 230 243 256 255 241 233 239 248 246 239 240 249 257 261 266 270 271 271 270 268 262 256 253 255 257 258 258 258 260 262 261 261 260 260 260 259 258 258 259 258 260 262 261 258 255 253 254 254 255 257 258 260 261 261 261 259
249 236 191 167 197 194 198 213 219 223 225 225 227 230 238 242 240 242 248 253 260 266 271 273 273 271 268 265 261 255 253 253 254 256 258 259 262 265 268 268 266 265 262 258 260 263 263 265 264 261 262 261 255 253 254 254 256 258 260 261 261 262 262
255 236 140 113 250 226 221 224 221 221 222 227 234 233 236 241 243 248 254 258 263 267 268 269 270 268 264 263 264 261 257 255 254 259 264 266 268 272 274 275 272 269 264 261 262 263 261 261 260 258 261 261 255 252 252 254 256 256 256 258 259 259 260
248 214 134 132 254 238 244 247 247 258 256 252 251 246 243 247 247 251 257 259 258 261 263 260 257 258 258 263 272 276 277 279 280 281 280 278 279 280 278 277 275 268 262 264 265 262 259 258 258 258 258 256 253 251 250 251 254 254 254 255 255 256 256
245 202 152 178 215 223 238 264 277 279 279 270 263 256 247 245 246 249 251 250 248 252 256 254 254 262 272 280 286 286 288 296 301 296 287 284 286 283 274 270 270 264 260 265 266 261 259 260 261 261 259 257 256 253 250 249 250 252 252 252 252 254 255
256 250 198 194 191 205 219 237 261 262 266 265 258 245 237 230 233 243 249 250 247 250 258 265 275 290 297 294 291 289 289 295 299 296 291 293 294 286 273 267 266 262 261 264 265 263 263 263 262 262 261 259 259 257 254 250 247 249 251 252 253 254 255
254 277 235 193 174 185 205 215 244 245 244 258 263 256 249 239 237 247 255 259 261 267 279 291 301 306 302 294 292 294 296 297 302 303 301 302 303 292 277 267 263 260 259 261 264 264 263 263 262 261 260 259 259 258 256 251 247 248 252 253 254 255 257
256 270 240 194 163 167 193 204 224 222 218 246 266 270 270 265 263 268 271 277 286 292 297 302 301 299 299 298 295 297 299 302 306 307 303 302 303 294 279 268 260 257 257 259 262 262 262 262 262 260 258 258 257 256 254 252 250 250 253 256 259 260 260
241 251 243 208 162 158 183 194 197 203 207 223 242 252 264 267 270 280 286 291 295 297 300 302 301 301 304 305 302 300 302 304 305 306 304 302 301 296 286 276 266 261 260 261 263 264 265 264 262 260 259 259 258 257 256 255 254 255 257 260 263 264 263
231 230 232 211 165 154 166 178 182 197 203 213 229 235 250 264 271 281 286 289 294 297 300 302 302 304 304 303 304 302 301 303 302 302 302 300 300 301 298 287 272 266 267 269 270 270 269 266 262 259 259 262 263 261 261 260 256 256 256 259 262 264 263
234 218 217 212 169 149 151 169 175 187 194 207 232 240 256 271 277 282 285 291 296 297 300 303 303 303 303 303 304 302 301 300 297 297 298 298 299 300 300 296 285 280 281 280 277 271 268 267 265 261 262 267 268 267 266 264 259 257 256 253 254 258 260
244 219 214 214 173 148 146 163 165 179 208 229 252 262 273 279 283 286 289 297 301 301 304 306 302 300 302 304 303 301 300 297 292 291 292 293 292 289 288 288 282 277 274 272 271 267 265 267 268 267 268 270 274 274 272 270 269 267 263 256 251 253 260
251 228 217 220 183 147 144 153 155 178 234 253 262 271 278 278 280 284 287 294 301 304 306 304 302 304 306 306 302 299 297 295 293 290 287 286 283 276 274 274 271 269 267 265 266 266 266 267 270 273 274 274 276 278 275 274 274 272 270 267 262 261 264
256 233 209 209 198 155 141 136 137 172 214 248 255 260 265 267 273 278 280 286 294 302 305 305 310 315 313 309 305 302 299 297 298 299 293 287 282 275 273 273 272 271 267 264 266 267 268 270 273 277 280 279 279 280 279 280 278 276 276 274 271 271 273
249 227 201 184 192 184 148 131 135 174 193 237 247 253 266 271 278 285 289 295 301 304 307 311 320 325 323 320 314 308 306 302 301 301 297 291 287 281 279 279 278 277 275 274 276 276 275 274 276 280 283 282 279 280 280 281 279 278 279 279 277 278 278
208 202 200 182 182 198 156 129 130 161 182 239 261 272 283 287 294 301 308 313 316 316 315 318 325 326 324 323 318 313 311 305 299 296 292 289 288 286 282 280 279 280 280 280 282 282 281 277 275 278 282 283 282 282 281 279 278 277 279 281 282 281 279
174 171 182 173 175 191 147 120 117 127 141 286 291 294 296 301 307 314 320 325 328 329 324 321 324 322 317 317 314 311 310 304 299 294 290 287 287 285 282 279 277 277 278 278 279 280 282 283 282 282 284 284 282 282 282 282 282 283 285 285 284 283 284
163 168 165 156 165 173 138 110 101 92 64 342 318 316 314 314 316 320 325 329 335 339 332 325 322 318 314 311 307 304 302 299 295 290 287 285 284 282 281 278 277 277 278 277 278 279 281 284 286 289 291 292 289 288 289 288 288 289 288 286 285 284 285
158 167 148 139 157 159 122 97 87 77 50 1 340 333 326 322 322 323 327 330 335 340 340 336 329 322 320 318 314 310 307 304 301 298 295 293 290 288 286 284 282 281 279 277 277 277 279 281 284 288 292 294 295 295 294 292 290 290 289 287 286 286 286
203 199 146 131 142 135 106 90 80 67 44 15 351 333 321 318 319 318 319 325 331 336 339 342 341 336 332 330 326 322 319 319 318 315 310 304 300 297 294 292 290 287 285 284 284 283 284 286 287 290 292 294 295 295 293 291 289 288 286 286 286 285 285
210 217 168 144 141 132 116 99 83 67 46 14 344 327 318 315 315 316 318 322 327 331 333 334 333 332 328 324 320 316 316 321 324 321 317 316 314 312 307 302 298 297 296 295 294 294 294 293 293 294 294 295 296 295 293 291 289 287 284 283 283 282 283
191 192 191 167 137 125 121 110 97 83 57 19 329 310 309 310 314 319 321 322 323 324 324 324 325 327 328 327 324 321 320 321 320 316 317 319 320 319 317 313 309 308 307 303 302 303 303 303 302 302 303 303 303 302 300 298 296 294 292 289 288 288 288
183 184 203 187 143 129 130 125 116 109 100 108 274 283 294 303 309 314 317 319 319 318 316 318 320 324 326 328 330 331 328 325 322 321 321 319 315 314 318 319 317 315 313 310 310 310 309 307 305 304 305 306 305 304 304 304 302 301 300 300 299 298 297
199 200 217 208 171 148 147 151 152 157 184 231 261 275 287 295 296 300 305 308 311 315 317 319 318 317 317 318 321 322 320 318 318 319 318 316 314 314 316 315 313 310 310 311 312 311 309 307 306 305 304 303 300 299 300 300 300 299 300 300 300 300 300
226 224 224 217 200 181 175 182 190 202 220 239 254 265 278 286 289 293 297 302 309 315 318 318 317 315 313 312 310 308 307 307 307 307 305 304 306 307 306 305 305 305 306 307 308 307 307 308 308 308 308 306 300 297 296 296 295 294 295 296 296 297 298
225 226 224 217 208 200 198 203 209 217 229 241 252 263 274 285 293 298 302 305 309 311 310 312 313 313 312 310 307 304 303 302 301 300 297 294 293 292 292 293 296 298 299 300 302 302 304 307 308 309 310 309 304 301 299 295 292 291 291 291 292 294 295
222 222 221 218 214 211 211 214 217 221 231 243 252 264 278 290 296 300 303 304 304 301 301 304 308 310 311 308 304 302 300 299 299 299 299 296 293 290 288 288 290 293 297 299 301 301 302 304 305 307 309 309 306 304 302 299 294 292 290 289 289 291 292
217 217 215 215 220 223 220 216 218 224 234 245 255 267 280 287 288 290 290 290 290 291 295 299 302 307 308 306 303 301 300 298 298 296 295 296 295 291 288 287 290 294 297 300 302 303 302 302 303 305 307 308 307 306 304 303 299 295 292 290 289 290 291
211 213 216 222 234 239 230 217 214 222 233 246 258 266 272 275 277 279 280 281 283 287 292 296 300 304 305 305 304 303 303 302 302 300 298 297 297 295 291 288 289 292 297 300 302 303 303 302 302 304 306 307 307 305 304 302 300 298 296 294 292 291 291
Height
5894 5896 5897 5898 5899 5900 5901 5902 5903 5904 5904 5904 5904 5905 5907 5909 5909 5910 5910 5911 5912 5913 5913 5914 5914 5915 5915 5915 5916 5917 5918 5919 5920 5920 5920 5920 5920 5920 5920 5920 5920 5920 5920 5921 5921 5921 5921 5921 5922 5923 5923 5924 5925 5925 5925 5926 5926 5926 5927 5927 5927 5928 5929
5893 5894 5896 5897 5898 5900 5900 5901 5902 5903 5904 5904 5904 5904 5905 5908 5909 5909 5909 5910 5911 5912 5912 5912 5913 5913 5914 5914 5915 5916 5918 5918 5919 5919 5919 5919 5919 5919 5919 5919 5919 5919 5919 5920 5920 5920 5920 5920 5920 5921 5921 5922 5923 5923 5924 5924 5924 5925 5925 5925 5926 5926 5927
5892 5892 5893 5895 5896 5898 5899 5899 5900 5901 5902 5903 5903 5903 5904 5907 5909 5908 5909 5910 5911 5911 5911 5911 5911 5912 5913 5914 5914 5915 5917 5918 5918 5918 5918 5918 5917 5917 5918 5918 5918 5918 5918 5918 5918 5918 5918 5918 5918 5919 5920 5920 5920 5921 5921 5922 5922 5923 5923 5923 5923 5924 5925
5892 5892 5892 5893 5894 5896 5897 5898 5899 5900 5900 5900 5901 5901 5901 5904 5907 5908 5908 5909 5909 5909 5909 5909 5910 5911 5912 5913 5914 5914 5916 5917 5917 5917 5916 5916 5915 5916 5916 5917 5917 5917 5917 5917 5917 5917 5916 5916 5917 5917 5918 5918 5919 5919 5919 5920 5920 5920 5921 5921 5921 5922 5922
5891 5891 5892 5892 5893 5893 5895 5896 5897 5898 5898 5899 5900 5900 5900 5902 5904 5905 5905 5906 5906 5906 5907 5908 5909 5910 5910 5911 5912 5913 5915 5916 5915 5914 5913 5913 5913 5914 5914 5915 5915 5915 5915 5915 5915 5915 5914 5914 5915 5915 5916 5916 5916 5917 5917 5917 5918 5918 5918 5919 5919 5919 5920
5890 5890 5891 5891 5891 5892 5893 5894 5896 5897 5897 5898 5900 5901 5901 5902 5903 5903 5903 5903 5905 5905 5906 5907 5908 5909 5909 5910 5911 5912 5913 5913 5912 5911 5910 5911 5911 5911 5912 5912 5912 5912 5913 5913 5913 5913 5912 5912 5912 5913 5913 5914 5914 5914 5915 5915 5915 5915 5916 5916 5917 5917 5918
5888 5890 5890 5890 5890 5890 5891 5892 5894 5895 5896 5897 5899 5900 5901 5902 5901 5901 5901 5902 5903 5904 5904 5905 5906 5907 5907 5908 5909 5910 5911 5910 5909 5908 5908 5908 5909 5909 5910 5909 5909 5909 5910 5910 5910 5910 5910 5910 5910 5911 5911 5911 5912 5912 5912 5913 5913 5913 5913 5914 5914 5915 5915
5885 5887 5889 5890 5891 5891 5891 5891 5891 5892 5894 5897 5897 5898 5899 5900 5900 5900 5901 5901 5902 5902 5903 5903 5904 5904 5905 5906 5907 5908 5908 5907 5907 5906 5905 5905 5906 5907 5907 5906 5906 5907 5908 5908 5908 5908 5907 5908 5908 5908 5908 5908 5909 5909 5910 5910 5911 5911 5911 5912 5912 5912 5913
5883 5884 5886 5888 5890 5891 5891 5890 5890 5891 5893 5895 5896 5896 5897 5898 5900 5900 5900 5899 5899 5900 5901 5901 5901 5902 5903 5905 5905 5904 5904 5904 5903 5902 5902 5902 5903 5903 5903 5903 5903 5904 5905 5905 5905 5905 5904 5905 5905 5905 5905 5906 5906 5906 5907 5908 5908 5909 5909 5910 5910 5910 5911
5883 5884 5884 5886 5889 5890 5891 5891 5891 5892 5892 5894 5895 5895 5896 5897 5898 5898 5898 5897 5898 5898 5899 5899 5899 5900 5901 5901 5901 5901 5900 5900 5899 5899 5898 5898 5899 5899 5899 5900 5901 5901 5901 5901 5901 5901 5902 5902 5903 5902 5903 5903 5903 5904 5904 5905 5906 5907 5907 5908 5908 5908 5908
5881 5882 5881 5882 5886 5888 5889 5890 5892 5892 5893 5894 5895 5895 5895 5895 5896 5896 5896 5896 5896 5897 5897 5897 5897 5897 5897 5896 5895 5895 5895 5896 5896 5895 5894 5894 5896 5896 5896 5897 5898 5898 5898 5898 5898 5899 5899 5900 5901 5901 5901 5902 5901 5901 5902 5902 5903 5904 5905 5905 5905 5906 5906
5882 5878 5874 5877 5881 5882 5885 5888 5889 5890 5892 5893 5894 5894 5894 5893 5893 5893 5894 5895 5896 5895 5895 5894 5893 5893 5892 5891 5889 5889 5890 5892 5893 5893 5893 5894 5895 5894 5894 5895 5895 5895 5895 5896 5896 5897 5897 5898 5898 5898 5899 5899 5900 5899 5900 5900 5901 5902 5902 5902 5902 5903 5903
5882 5874 5868 5874 5879 5880 5882 5884 5884 5886 5888 5889 5890 5891 5891 5891 5891 5892 5892 5893 5893 5892 5891 5890 5890 5889 5889 5889 5888 5888 5889 5891 5892 5893 5893 5894 5894 5894 5894 5894 5893 5893 5893 5893 5894 5894 5895 5895 5895 5895 5896 5896 5896 5897 5897 5897 5898 5898 5899 5899 5899 5899 5900
5881 5874 5867 5872 5878 5879 5881 5882 5882 5883 5885 5886 5887 5888 5889 5889 5890 5890 5890 5890 5890 5889 5887 5887 5887 5888 5889 5890 5889 5889 5889 5890 5890 5891 5892 5892 5891 5891 5892 5892 5891 5890 5891 5891 5892 5892 5892 5892 5893 5893 5893 5893 5893 5893 5894 5894 5895 5895 5895 5895 5895 5896 5897
5880 5876 5870 5871 5875 5878 5880 5882 5883 5883 5883 5884 5885 5887 5888 5888 5888 5888 5888 5888 5887 5886 5886 5886 5888 5890 5890 5891 5890 5888 5888 5888 5887 5888 5888 5888 5887 5886 5887 5887 5887 5887 5888 5889 5889 5890 5890 5891 5891 5891 5891 5891 5891 5891 5891 5891 5892 5892 5892 5892 5892 5892 5893
5879 5878 5875 5871 5872 5876 5879 5881 5882 5882 5882 5882 5883 5883 5885 5885 5885 5886 5886 5886 5885 5886 5888 5888 5889 5890 5890 5890 5889 5888 5887 5886 5886 5887 5886 5886 5886 5884 5883 5884 5884 5884 5885 5886 5886 5887 5887 5888 5888 5888 5889 5888 5888 5888 5888 5888 5889 5889 5889 5890 5890 5890 5890
5878 5878 5878 5873 5870 5874 5878 5879 5881 5881 5881 5881 5881 5881 5882 5882 5882 5883 5883 5883 5884 5885 5887 5888 5888 5888 5887 5888 5888 5887 5887 5886 5885 5885 5885 5884 5884 5883 5882 5882 5882 5883 5883 5884 5884 5884 5884 5884 5884 5884 5884 5884 5884 5883 5884 5885 5886 5887 5887 5888 5889 5889 5888
5877 5878 5878 5874 5869 5872 5876 5878 5880 5881 5881 5882 5882 5881 5882 5882 5882 5883 5883 5883 5883 5884 5885 5886 5885 5885 5885 5886 5886 5886 5886 5885 5884 5884 5884 5883 5882 5882 5881 5880 5881 5881 5881 5882 5882 5882 5882 5882 5882 5882 5881 5881 5880 5880 5881 5883 5884 5884 5885 5885 5886 5886 5885
5876 5876 5876 5874 5869 5869 5875 5877 5878 5880 5881 5881 5882 5882 5883 5883 5883 5884 5884 5884 5884 5883 5884 5885 5885 5884 5884 5884 5885 5885 5885 5884 5883 5883 5883 5882 5881 5880 5880 5880 5880 5880 5880 5881 5881 5880 5880 5880 5880 5880 5879 5879 5879 5879 5880 5881 5882 5881 5881 5882 5882 5882 5882
5874 5874 5875 5874 5869 5868 5873 5876 5877 5879 5880 5881 5882 5882 5883 5884 5884 5884 5884 5884 5884 5883 5884 5884 5884 5884 5883 5883 5884 5883 5883 5883 5882 5882 5881 5881 5880 5880 5880 5880 5880 5880 5880 5879 5879 5879 5879 5879 5879 5878 5879 5879 5879 5879 5879 5880 5880 5879 5879 5879 5879 5879 5879
5875 5873 5874 5874 5869 5866 5871 5875 5876 5878 5880 5880 5882 5882 5883 5884 5884 5884 5884 5885 5884 5883 5883 5883 5883 5883 5883 5883 5882 5882 5881 5881 5880 5880 5880 5879 5879 5879 5879 5879 5879 5879 5878 5878 5878 5878 5877 5877 5877 5877 5878 5878 5878 5878 5878 5878 5878 5879 5879 5878 5877 5877 5877
5875 5874 5873 5873 5870 5867 5868 5873 5876 5877 5879 5880 5881 5882 5883 5883 5883 5883 5884 5884 5883 5882 5882 5882 5882 5882 5882 5882 5881 5880 5879 5879 5878 5878 5878 5878 5878 5878 5878 5878 5878 5878 5877 5877 5877 5876 5876 5876 5876 5876 5877 5877 5877 5878 5877 5876 5877 5878 5878 5877 5876 5876 5876
5875 5875 5873 5873 5873 5870 5868 5871 5875 5877 5878 5880 5880 5881 5881 5881 5881 5882 5883 5883 5882 5881 5880 5880 5880 5881 5881 5880 5880 5879 5879 5878 5877 5877 5877 5878 5878 5877 5877 5877 5877 5877 5877 5876 5876 5876 5875 5875 5875 5876 5876 5876 5876 5876 5876 5876 5876 5876 5876 5875 5875 5874 5874
5873 5874 5873 5873 5874 5874 5870 5870 5873 5876 5877 5879 5879 5880 5880 5881 5881 5881 5882 5882 5881 5880 5880 5880 5880 5880 5879 5879 5879 5879 5879 5878 5878 5877 5877 5877 5878 5878 5877 5877 5877 5877 5877 5876 5876 5875 5874 5874 5874 5875 5876 5876 5876 5876 5876 5876 5876 5875 5874 5874 5873 5873 5873
5871 5872 5873 5872 5874 5875 5873 5870 5872 5876 5877 5878 5879 5879 5880 5880 5880 5881 5881 5881 5881 5879 5879 5880 5880 5880 5879 5878 5878 5878 5878 5878 5878 5877 5877 5877 5877 5877 5877 5877 5877 5876 5876 5875 5875 5874 5873 5872 5873 5874 5875 5876 5876 5875 5875 5875 5874 5873 5873 5872 5872 5871 5871
5870 5871 5873 5872 5873 5875 5874 5872 5873 5875 5877 5878 5879 5879 5880 5880 5880 5881 5882 5881 5880 5879 5878 5878 5879 5880 5879 5878 5878 5877 5877 5877 5877 5877 5877 5877 5877 5877 5877 5876 5876 5876 5875 5875 5874 5873 5872 5871 5871 5872 5874 5875 5875 5875 5874 5873 5872 5871 5871 5871 5870 5869 5869
5870 5870 5872 5872 5873 5875 5875 5873 5873 5875 5877 5878 5879 5879 5879 5879 5879 5880 5881 5881 5881 5879 5877 5877 5878 5879 5878 5878 5877 5877 5877 5877 5877 5877 5877 5877 5876 5876 5876 5876 5876 5875 5875 5875 5874 5873 5872 5871 5870 5869 5870 5872 5873 5873 5872 5870 5869 5869 5869 5869 5868 5867 5867
5871 5872 5872 5872 5874 5875 5874 5873 5874 5875 5877 5878 5878 5878 5878 5878 5878 5878 5879 5880 5880 5879 5877 5877 5877 5878 5878 5878 5878 5878 5877 5877 5877 5877 5877 5876 5876 5875 5875 5875 5874 5874 5874 5874 5873 5873 5872 5871 5869 5868 5868 5868 5868 5869 5868 5868 5867 5867 5867 5866 5866 5865 5864
5871 5873 5874 5874 5874 5875 5873 5873 5874 5875 5876 5877 5877 5877 5877 5877 5877 5877 5878 5878 5879 5878 5878 5877 5876 5877 5878 5878 5878 5877 5877 5877 5877 5877 5876 5876 5875 5875 5874 5874 5874 5873 5873 5872 5872 5871 5870 5869 5869 5868 5867 5866 5865 5865 5865 5864 5864 5864 5864 5863 5863 5863 5862
5870 5873 5874 5873 5873 5873 5872 5872 5873 5875 5876 5876 5876 5876 5876 5876 5876 5876 5877 5877 5878 5877 5877 5877 5876 5876 5876 5876 5876 5876 5876 5876 5876 5876 5875 5875 5874 5874 5873 5873 5873 5872 5871 5871 5870 5870 5869 5868 5867 5866 5866 5865 5864 5863 5863 5862 5861 5861 5861 5861 5860 5860 5859
5869 5872 5873 5872 5871 5871 5871 5872 5873 5874 5875 5875 5875 5875 5875 5875 5875 5876 5876 5876 5876 5876 5876 5875 5875 5874 5874 5874 5874 5875 5875 5875 5874 5874 5874 5874 5874 5873 5873 5872 5872 5871 5870 5869 5869 5868 5868 5867 5866 5865 5864 5863 5862 5861 5861 5860 5859 5858 5858 5858 5857 5856 5856
5868 5869 5871 5870 5869 5869 5870 5871 5872 5873 5873 5874 5874 5874 5874 5874 5874 5874 5874 5874 5874 5874 5874 5874 5873 5873 5873 5872 5872 5873 5873 5873 5872 5872 5872 5872 5872 5872 5872 5871 5871 5870 5869 5868 5868 5867 5866 5866 5865 5864 5863 5862 5861 5860 5859 5859 5858 5856 5855 5855 5854 5853 5853
5867 5868 5868 5869 5867 5867 5869 5869 5870 5871 5871 5872 5872 5872 5873 5873 5873 5873 5873 5872 5872 5873 5873 5873 5873 5873 5872 5871 5871 5872 5871 5871 5871 5871 5870 5870 5869 5869 5869 5869 5869 5868 5867 5867 5866 5866 5865 5864 5863 5863 5862 5861 5860 5859 5858 5858 5857 5855 5854 5853 5852 5851 5851
5866 5866 5867 5867 5866 5866 5867 5868 5868 5869 5869 5870 5871 5871 5871 5871 5871 5871 5871 5872 5872 5872 5872 5872 5872 5871 5871 5871 5870 5870 5869 5869 5869 5869 5868 5867 5867 5867 5867 5867 5866 5866 5865 5864 5864 5863 5862 5862 5861 5860 5859 5859 5857 5856 5856 5856 5855 5854 5853 5852 5851 5850 5849
5862 5863 5864 5864 5864 5864 5865 5866 5866 5867 5868 5868 5869 5869 5870 5870 5870 5870 5870 5871 5871 5871 5870 5870 5870 5869 5869 5869 5868 5867 5866 5866 5866 5866 5866 5865 5865 5865 5865 5864 5864 5863 5862 5861 5861 5859 5859 5858 5857 5856 5856 5855 5854 5853 5853 5853 5852 5851 5850 5849 5848 5847 5846
5857 5858 5859 5860 5861 5861 5862 5863 5864 5865 5866 5867 5868 5868 5869 5869 5869 5869 5869 5869 5869 5869 5868 5868 5868 5867 5867 5866 5865 5864 5864 5863 5863 5862 5862 5862 5861 5860 5860 5859 5859 5859 5858 5857 5857 5856 5855 5854 5853 5852 5852 5852 5850 5849 5849 5848 5847 5846 5845 5844 5844 5843 5842
5848 5851 5854 5856 5857 5857 5857 5859 5861 5863 5864 5865 5867 5867 5868 5868 5868 5868 5868 5868 5867 5867 5866 5865 5865 5865 5864 5864 5862 5861 5860 5860 5860 5859 5859 5859 5858 5857 5856 5855 5854 5854 5853 5852 5852 5851 5850 5850 5849 5848 5848 5847 5846 5845 5844 5843 5842 5842 5841 5839 5839 5838 5837
5845 5847 5851 5854 5855 5856 5856 5856 5857 5860 5863 5864 5865 5866 5866 5866 5866 5866 5866 5865 5865 5864 5864 5863 5862 5861 5860 5859 5858 5857 5855 5855 5855 5855 5854 5854 5853 5853 5852 5851 5851 5850 5849 5848 5847 5847 5846 5845 5845 5844 5843 5842 5842 5840 5839 5839 5837 5836 5835 5834 5833 5832 5832